Location: Observatorio Las Palmas
(29.0667°N, 110.9333°W)
Time: 10:12:36
(UTC-07:00)

Hubble Space Telescope - Visible Passes

Search period start: 24 June 2017 00:00
Search period end: 04 July 2017 00:00
Orbit: 538 x 541 km, 28.5° (Epoch: 23 June)

Date Brightness Start Highest point End Pass type
(mag) Time Alt. Az. Time Alt. Az. Time Alt. Az.
26 Jun 3.2 04:11:18 10° S 04:12:29 11° SSE 04:13:41 10° SE visible
27 Jun 2.8 04:01:15 13° S 04:02:19 15° SSE 04:04:38 10° ESE visible
28 Jun 2.5 03:51:39 18° SSE 03:52:10 19° SSE 03:55:05 10° ESE visible
29 Jun 2.2 03:42:01 23° SSE 03:42:01 23° SSE 03:45:20 10° ESE visible
30 Jun 2.0 03:32:21 28° SE 03:32:21 28° SE 03:35:29 10° E visible
01 Jul 2.0 03:22:40 31° SE 03:22:40 31° SE 03:25:33 10° E visible
01 Jul 0.8 04:58:40 10° WSW 05:02:48 76° S 05:06:57 10° E visible
02 Jul 2.1 03:13:00 31° ESE 03:13:00 31° ESE 03:15:34 10° E visible
02 Jul 0.7 04:48:36 10° W 04:52:44 81° S 04:56:53 10° E visible
03 Jul 2.3 03:03:21 28° ESE 03:03:21 28° ESE 03:05:33 10° E visible
03 Jul 0.7 04:38:43 11° W 04:42:41 84° S 04:46:50 10° E visible
